Home > Weather > Ittoqqortoormiit > Past weeks

Flag for Greenland Weather for the Past 2 Weeks in Ittoqqortoormiit, Greenland

Now
0 °F

Clear.


Feels Like: -13 °F
Forecast: -25 / -19 °F
Wind: 7 mph from Northeast

Location: Scoresbysund

Current Time: Feb 13, 2016 at 7:02:56 PM

Latest Report: Feb 13, 2016 at 6:00 PM


Visibility: 31 mi

Pressure: 30.11 "Hg

Humidity: 50%

Dew point: -14 °F

Location of IttoqqortoormiitLocation

Historic Weather in Ittoqqortoormiit — Graph

°F

Ittoqqortoormiit Temperature Yesterday

Maximum temperature yesterday: 17 °F (at 7:00 PM)
Minimum temperature yesterday: 6 °F (at 5:00 AM)
Average temperature yesterday: 11 °F

High & Low Weather Summary for the Past Weeks

 TemperatureHumidityPressure
High22 °F (Feb 6, 12:00 PM)95% (Feb 5, 10:00 PM)30.25 "Hg (Feb 5, 10:00 PM)
Low-5 °F (Feb 8, 8:00 AM)39% (Jan 31, 11:00 AM)29.18 "Hg (Jan 29, 5:00 PM)
Average8 °F68%29.84 "Hg
* Reported Jan 29 5:00 PM — Feb 13 5:00 PM, Ittoqqortoormiit, Weather by CustomWeather, © 2016

Note: Actual official high and low records may vary slightly from our data, if they occured in-between our weather recording intervals... More about our weather records

Advertising

Ittoqqortoormiit Weather History for the Previous 24 Hours

 ConditionsComfort  
Time TempWeatherWind HumidityBarometerVisibility
5:00 PM
Sat, Feb 13
-1 °FClear.10 mph53%30.10 "Hg31 mi
4:00 PM0 °FSunny.9 mph52%30.10 "Hg31 mi
3:00 PM2 °FSunny.8 mph51%30.10 "Hg31 mi
2:00 PM2 °FSunny.10 mph58%30.09 "Hg31 mi
1:00 PM2 °FSunny.9 mphN/A30.09 "Hg31 mi
12:00 PM2 °FSunny.10 mph54%30.09 "Hg31 mi
11:00 AM1 °FSunny.9 mph55%30.09 "Hg31 mi
10:00 AM3 °FSunny.6 mph50%30.08 "Hg31 mi
9:00 AM2 °FClear.9 mph48%30.07 "Hg31 mi
8:00 AM4 °FClear.7 mph40%30.06 "Hg31 mi
7:00 AM1 °FClear.8 mph55%30.05 "Hg31 mi
6:00 AM1 °FClear.10 mph61%30.02 "Hg31 mi
5:00 AM3 °FClear.9 mph60%30.01 "Hg31 mi
4:00 AM3 °FClear.9 mph60%29.99 "Hg31 mi
3:00 AM3 °FClear.9 mph60%29.98 "Hg31 mi
2:00 AM9 °FPassing clouds.5 mph57%29.97 "Hg31 mi
7:00 PM
Fri, Feb 12
17 °FOvercast.16 mph47%29.84 "Hg31 mi
Weather by CustomWeather, © 2016

See weather overviewHow to use our weather pages